Flag for Botswana Weather past 2 weeks in Molepolole, Botswana

Now
73 °F

Passing clouds.


Feels Like: 77 °F
Forecast: 59 / 83 °F
Wind: 6 mph from North

Location: Seretse Khama International Airport

Current Time: Apr 26, 2015 at 11:04:36 AM

Latest Report: Apr 26, 2015 at 10:00 AM


Visibility: N/A

Pressure: 30.24 "Hg

Humidity: 47%

Dew point: 52 °F

Location of MolepololeLocation

Historic Weather in Molepolole — Graph

°F

Molepolole temperature yesterday

Maximum temperature yesterday: 81 °F (at 5:00 PM)
Minimum temperature yesterday: 57 °F (at 6:00 AM)
Average temperature yesterday: 68 °F

Past Weeks' High & Low Weather Summary

 TemperatureHumidityPressure
High88 °F (Apr 15, 3:00 PM)100% (Apr 12, 6:00 AM)30.36 "Hg (Apr 12, 6:00 AM)
Low54 °F (Apr 16, 6:00 AM)16% (Apr 15, 3:00 PM)29.92 "Hg (Apr 15, 3:00 PM)
Average68 °F62%30.17 "Hg
* Reported Apr 12 6:00 AM — Apr 26 10:00 AM, Molepolole, Weather by CustomWeather, © 2015

Note: Actual official high and low records may vary slightly from our data, if they occured in-between our weather recording intervals... More about our weather records

Advertising

Molepolole weather history for previous 24 hours

 ConditionsComfort  
Time TempWeatherWind HumidityBarometerVisibility
10:00 AM
Sun, Apr 26
73 °FPassing clouds.6 mph47%30.24 "HgN/A
9:00 AM70 °FPassing clouds.3 mph53%30.21 "HgN/A
8:00 AM63 °FSunny.1 mph68%30.21 "Hg10 mi
7:00 AM55 °FSunny.1 mph88%30.21 "Hg10 mi
6:00 AM54 °FSunny.1 mph88%30.18 "Hg10 mi
5:00 AM55 °FClear.1 mph88%30.18 "Hg10 mi
4:00 AM57 °FClear.3 mph77%30.18 "Hg10 mi
3:00 AM59 °FClear.2 mph77%30.21 "Hg10 mi
2:00 AM61 °FClear.6 mph72%30.21 "Hg10 mi
11:00 PM
Sat, Apr 25
63 °FClear.8 mph64%30.24 "Hg10 mi
10:00 PM64 °FPassing clouds.2 mph60%30.24 "HgN/A
8:00 PM73 °FPassing clouds.3 mph36%30.24 "HgN/A
5:00 PM81 °FPassing clouds.2 mph30%30.18 "HgN/A
2:00 PM79 °FPassing clouds.5 mph48%30.24 "HgN/A
1:00 PM77 °FPassing clouds.6 mph47%30.27 "HgN/A
12:00 PM75 °FPassing clouds.6 mph50%30.30 "HgN/A
11:00 AM73 °FPassing clouds.7 mph53%30.33 "HgN/A
Weather by CustomWeather, © 2015

See weather overviewHow to use our weather pages